DW2745 Weather Reports


time (UTC)temp
F
wind
direction
speed
knots
gust
knots
rain 1hr
in
rain 24hr
in
rain mn
in
humidity
%
barometer
mb
20260507060516 43 225 2.6 5.2 0.00 0.51 0.00 75 1011.8
20260507060019 43 221 2.6 7.0 0.00 0.51 0.00 73 1011.6
20260507055516 43 228 3.5 7.0 0.00 0.60 0.00 73 1011.7
20260507055013 43 240 3.5 8.7 0.00 0.60 0.00 72 1011.8
20260507054513 44 223 4.3 8.7 0.00 0.60 0.00 72 1011.8
20260507054012 44 250 5.2 9.6 0.00 0.60 0.00 72 1011.9
20260507053511 44 248 5.2 12.2 0.00 0.60 0.00 73 1011.8
20260507053011 44 265 5.2 12.2 0.00 0.60 0.00 73 1011.8
20260507052510 44 250 7.0 13.9 0.00 0.60 0.00 74 1011.8
20260507052012 44 259 8.7 13.9 0.00 0.60 0.00 77 1011.9
20260507051513 44 242 8.7 13.0 0.00 0.60 0.00 76 1012.1
20260507051010 44 272 10.4 13.0 0.00 0.60 0.00 74 1012.0
20260507050508 44 283 10.4 13.9 0.00 0.60 0.00 74 1012.1
20260507050020 44 275 11.3 13.9 0.00 0.60 0.00 74 1012.1
20260507045508 44 274 10.4 14.8 0.00 0.66 0.00 75 1012.0
20260507045007 44 259 12.2 14.8 0.00 0.66 0.00 74 1012.0
20260507044507 44 290 12.2 14.8 0.00 0.66 0.00 75 1012.0
20260507044008 44 283 12.2 13.9 0.00 0.66 0.00 75 1011.9
20260507043504 44 284 11.3 14.8 0.00 0.66 0.00 77 1011.8
20260507043004 44 290 11.3 14.8 0.00 0.66 0.00 76 1011.9
20260507042503 45 284 11.3 15.6 0.00 0.66 0.00 75 1012.0
20260507042001 45 275 12.2 15.6 0.00 0.66 0.00 76 1011.9
20260507041600 45 286 11.3 14.8 0.00 0.66 0.00 77 1011.8
20260507041059 45 290 12.2 15.6 0.00 0.66 0.00 81 1011.7
20260507040558 45 284 12.2 15.6 0.00 0.66 0.00 86 1011.7
20260507035556 44 265 7.8 12.2 0.00 0.68 0.66 88 1011.7
20260507035055 44 275 6.1 9.6 0.00 0.68 0.66 89 1011.7
20260507034602 44 246 7.0 10.4 0.00 0.68 0.66 89 1011.7
20260507034055 44 247 5.2 8.7 0.00 0.68 0.66 90 1011.8
20260507033554 43 254 5.2 8.7 0.00 0.68 0.66 90 1011.4
20260507033107 43 252 4.3 8.7 0.00 0.68 0.66 90 1011.4
20260507032554 43 238 5.2 9.6 0.00 0.68 0.66 91 1011.4
20260507032053 43 246 5.2 9.6 0.00 0.68 0.66 91 1011.4
20260507031601 43 235 5.2 8.7 0.00 0.68 0.66 92 1011.5
20260507031055 43 235 6.1 9.6 0.00 0.68 0.66 92 1011.4
20260507030553 43 260 6.1 9.6 0.00 0.68 0.66 93 1011.2
20260507030108 43 257 5.2 8.7 0.00 0.68 0.66 93 1011.4
20260507025553 43 218 5.2 7.8 0.00 0.70 0.66 93 1011.4
20260507025053 43 247 4.3 8.7 0.00 0.70 0.66 94 1011.4
20260507024608 42 236 5.2 8.7 0.00 0.70 0.66 94 1011.4
20260507024052 42 229 4.3 7.0 0.00 0.70 0.66 95 1011.4
20260507023552 42 248 2.6 7.0 0.00 0.70 0.66 95 1011.4
20260507023053 42 221 3.5 7.0 0.00 0.70 0.66 95 1011.4
20260507022552 42 247 3.5 7.0 0.00 0.70 0.66 95 1011.4
20260507022052 42 227 2.6 7.0 0.00 0.70 0.66 95 1011.6
20260507021556 42 247 3.5 7.0 0.00 0.70 0.66 94 1011.6
20260507021053 42 217 2.6 6.1 0.00 0.70 0.66 94 1011.5
20260507020551 42 246 2.6 5.2 0.01 0.70 0.66 94 1011.5
20260507020058 42 235 1.7 6.1 0.01 0.70 0.66 94 1011.6
20260507015551 42 217 2.6 6.1 0.01 0.73 0.66 94 1011.4
20260507015053 42 234 2.6 4.3 0.01 0.73 0.66 94 1011.3
20260507014557 42 213 1.7 5.2 0.01 0.73 0.66 93 1011.3
20260507014050 42 236 2.6 7.0 0.01 0.73 0.66 93 1011.3
20260507013551 42 240 3.5 9.6 0.01 0.73 0.66 93 1011.5
20260507013058 43 238 6.1 10.4 0.01 0.73 0.66 94 1011.6
20260507012550 43 270 7.8 11.3 0.01 0.73 0.66 94 1011.6
20260507012049 42 285 8.7 11.3 0.01 0.73 0.66 94 1011.5
20260507011552 42 273 9.6 12.2 0.01 0.73 0.66 94 1011.4
20260507011048 42 280 9.6 12.2 0.01 0.73 0.66 94 1011.3
20260507010548 42 277 10.4 13.0 0.00 0.72 0.65 93 1011.3
20260507010048 42 300 10.4 13.0 0.00 0.72 0.65 93 1011.3
20260507005547 42 296 9.6 11.3 0.00 0.76 0.65 93 1011.2
20260507005045 42 293 9.6 12.2 0.00 0.76 0.65 93 1011.1
20260507004543 42 299 8.7 11.3 0.00 0.76 0.65 92 1011.0
20260507004043 42 304 9.6 11.3 0.00 0.76 0.65 92 1010.9
20260507003546 42 304 8.7 11.3 0.00 0.76 0.65 90 1010.9
20260507003042 43 306 8.7 11.3 0.00 0.76 0.65 89 1010.8
20260507002542 43 320 2.6 4.3 0.00 0.76 0.65 89 1010.7
20260507002044 43 327 3.5 5.2 0.00 0.76 0.65 88 1010.7
20260507001540 44 325 4.3 5.2 0.00 0.76 0.65 87 1010.5
20260507001040 44 5 2.6 3.5 0.00 0.76 0.65 87 1010.5
20260507000539 44 45 0.0 0.9 0.00 0.76 0.65 88 1010.4
20260507000039 44 45 0.0 0.9 0.00 0.76 0.65 88 1010.3
20260506235540 44 45 0.0 1.7 0.00 0.80 0.65 88 1010.3
20260506235038 44 45 0.0 3.5 0.00 0.80 0.65 88 1010.3
20260506234550 44 45 0.9 3.5 0.00 0.80 0.65 88 1010.2
20260506234036 44 45 1.7 4.3 0.00 0.80 0.65 88 1010.1
20260506233536 44 45 2.6 4.3 0.00 0.80 0.65 88 1010.1
20260506233044 44 49 2.6 5.2 0.00 0.80 0.65 88 1010.0
20260506232535 45 50 3.5 7.0 0.00 0.80 0.65 88 1010.0
20260506232035 45 32 4.3 7.0 0.00 0.80 0.65 88 1009.9
20260506231535 45 27 3.5 5.2 0.00 0.80 0.65 87 1009.9
20260506231036 46 28 3.5 4.3 0.00 0.80 0.65 88 1009.9
20260506230534 46 24 2.6 4.3 0.00 0.80 0.65 88 1009.8
20260506230033 46 355 0.9 2.6 0.00 0.80 0.65 88 1009.6
20260506225534 46 355 0.0 0.0 0.00 0.82 0.65 88 1009.5
20260506225034 46 355 0.0 0.0 0.00 0.82 0.65 88 1009.4
20260506224534 45 355 0.0 0.0 0.00 0.82 0.65 88 1009.3
20260506224033 45 355 0.0 0.0 0.00 0.82 0.65 87 1009.3
20260506223535 45 355 0.0 0.0 0.00 0.82 0.65 87 1009.4
20260506223032 45 355 0.0 1.7 0.00 0.82 0.65 86 1009.4
20260506222532 45 355 0.0 1.7 0.00 0.82 0.65 86 1009.2
20260506222033 45 355 0.0 1.7 0.00 0.82 0.65 85 1009.3
20260506221532 45 355 0.0 1.7 0.00 0.82 0.65 85 1009.4
20260506221034 45 355 0.0 1.7 0.00 0.82 0.65 85 1009.3
20260506220533 45 355 0.9 2.6 0.00 0.82 0.65 85 1009.4
20260506220135 45 355 0.9 2.6 0.00 0.82 0.65 85 1009.2
20260506215531 45 355 0.9 1.7 0.00 0.82 0.65 85 1009.4
20260506215031 45 355 0.9 2.6 0.00 0.82 0.65 85 1009.5
20260506214531 44 355 1.7 2.6 0.00 0.82 0.65 83 1009.5
20260506214034 44 355 0.9 2.6 0.00 0.82 0.65 84 1009.5
20260506213533 44 355 1.7 2.6 0.00 0.82 0.65 84 1009.6
20260506213032 44 355 0.9 2.6 0.00 0.82 0.65 84 1009.6
20260506212530 44 355 0.9 2.6 0.00 0.82 0.65 84 1009.5
20260506212030 44 355 0.9 2.6 0.00 0.82 0.65 84 1009.5
20260506211530 44 355 0.9 3.5 0.00 0.82 0.65 84 1009.5
20260506211030 44 355 1.7 3.5 0.00 0.82 0.65 84 1009.4
20260506210530 44 49 0.9 2.6 0.00 0.82 0.65 84 1009.6
20260506210034 44 49 1.7 4.3 0.00 0.82 0.65 85 1009.4
20260506205533 44 49 2.6 4.3 0.00 0.82 0.65 86 1009.2
20260506205027 44 36 0.9 3.5 0.00 0.82 0.65 86 1009.3
20260506204527 44 331 0.0 0.0 0.00 0.82 0.65 86 1009.3
20260506204028 44 331 0.0 0.0 0.00 0.82 0.65 86 1009.2
20260506203529 44 331 0.0 0.0 0.00 0.82 0.65 86 1009.4
20260506203035 43 331 0.0 0.0 0.00 0.82 0.65 87 1009.3
20260506202526 43 331 0.0 0.0 0.00 0.82 0.65 87 1009.2
20260506202026 43 331 0.0 0.0 0.00 0.82 0.65 87 1009.5
20260506201528 43 331 0.0 0.9 0.00 0.82 0.65 87 1009.6
20260506201026 43 331 0.0 0.9 0.00 0.82 0.65 88 1009.6
20260506200525 43 331 0.0 0.0 0.00 0.82 0.65 88 1009.5
20260506200025 43 331 0.0 0.0 0.00 0.82 0.65 89 1009.4
20260506195527 43 331 0.0 0.9 0.00 0.82 0.65 89 1009.4
20260506195024 43 331 0.0 1.7 0.00 0.82 0.65 89 1009.3
20260506194524 43 331 0.0 2.6 0.00 0.82 0.65 90 1009.3
20260506194024 43 331 0.9 2.6 0.00 0.82 0.65 90 1009.3
20260506193524 43 331 0.0 1.7 0.00 0.82 0.65 90 1009.3
20260506193023 43 331 0.9 1.7 0.00 0.82 0.65 91 1009.3
20260506192523 43 331 0.0 2.6 0.00 0.82 0.65 91 1009.2
20260506192026 42 331 1.7 3.5 0.00 0.82 0.65 91 1009.3
20260506191523 42 331 1.7 3.5 0.00 0.82 0.65 92 1009.4
20260506191022 42 331 1.7 3.5 0.00 0.82 0.65 92 1009.4
20260506190521 42 331 0.9 3.5 0.00 0.82 0.65 92 1009.4
20260506190022 42 331 1.7 3.5 0.00 0.82 0.65 93 1009.3
20260506185521 42 325 1.7 3.5 0.00 0.82 0.65 93 1009.4
20260506185021 42 313 1.7 3.5 0.00 0.82 0.65 94 1009.4
20260506184521 42 318 1.7 3.5 0.00 0.82 0.65 94 1009.3
20260506184025 42 318 1.7 3.5 0.00 0.82 0.65 94 1009.3
20260506183521 42 329 1.7 4.3 0.00 0.82 0.65 94 1009.3
20260506183021 42 333 2.6 4.3 0.00 0.82 0.65 94 1009.3
20260506182519 42 326 2.6 5.2 0.00 0.82 0.65 95 1009.4
20260506182019 42 324 3.5 5.2 0.00 0.82 0.65 95 1009.6
20260506181519 42 320 3.5 5.2 0.00 0.82 0.65 95 1009.6
20260506181019 42 318 3.5 7.0 0.00 0.82 0.65 95 1009.7
20260506180519 42 323 4.3 7.0 0.00 0.82 0.65 95 1009.7
20260506180025 41 333 4.3 7.0 0.00 0.82 0.65 96 1009.6
20260506175517 41 343 4.3 7.8 0.00 0.82 0.65 96 1009.6
20260506175017 41 329 5.2 7.8 0.00 0.82 0.65 95 1009.4
20260506174519 41 338 4.3 7.0 0.00 0.82 0.65 96 1009.3
20260506174015 41 336 4.3 7.0 0.00 0.82 0.65 96 1009.2
20260506173515 41 338 4.3 7.0 0.00 0.82 0.65 96 1009.1
20260506173018 41 348 4.3 7.0 0.00 0.82 0.65 96 1009.1
20260506172513 41 360 4.3 5.2 0.00 0.82 0.65 96 1008.9
20260506172013 41 5 3.5 5.2 0.00 0.82 0.65 96 1008.8
20260506171515 41 17 2.6 4.3 0.00 0.82 0.65 96 1008.7
20260506171013 41 19 2.6 4.3 0.00 0.82 0.65 96 1008.8
20260506170513 41 10 2.6 5.2 0.00 0.82 0.65 96 1008.8
20260506170013 41 19 3.5 5.2 0.00 0.82 0.65 96 1008.8
20260506165514 41 20 3.5 7.0 0.00 0.82 0.65 97 1008.7
20260506165014 41 5 3.5 7.8 0.00 0.82 0.65 97 1008.7
20260506164512 41 12 5.2 7.8 0.00 0.82 0.65 97 1008.8
20260506164014 41 355 5.2 7.0 0.00 0.82 0.65 97 1008.7
20260506163510 41 13 4.3 7.8 0.00 0.82 0.65 97 1008.7
20260506163016 41 15 4.3 7.8 0.00 0.82 0.65 97 1008.8
20260506162508 41 12 5.2 7.0 0.00 0.82 0.65 97 1008.7
20260506162009 41 26 4.3 7.0 0.00 0.82 0.65 97 1008.6
20260506161507 41 20 4.3 7.0 0.00 0.82 0.65 97 1008.7
20260506161010 41 17 4.3 5.2 0.01 0.82 0.65 97 1008.7
20260506160508 41 360 3.5 5.2 0.01 0.82 0.65 96 1008.8
20260506160005 41 19 4.3 6.1 0.01 0.82 0.65 97 1008.7
20260506155504 41 28 3.5 5.2 0.01 0.82 0.65 97 1008.7
20260506155004 41 21 4.3 7.8 0.01 0.82 0.65 97 1008.8
20260506154504 41 22 4.3 8.7 0.01 0.82 0.65 97 1008.7
20260506154003 41 28 5.2 8.7 0.01 0.82 0.65 97 1008.6
20260506153502 41 36 6.1 8.7 0.01 0.82 0.65 97 1008.7
20260506153001 41 26 5.2 8.7 0.01 0.82 0.65 97 1008.7
20260506152500 41 32 6.1 8.7 0.01 0.82 0.65 97 1008.6
20260506152059 41 27 5.2 8.7 0.01 0.82 0.65 97 1008.6
20260506151600 41 32 5.2 7.8 0.01 0.82 0.65 97 1008.6
20260506151057 41 30 5.2 7.8 0.00 0.81 0.64 97 1008.6
20260506150557 41 19 4.3 7.8 0.00 0.81 0.64 97 1008.7
20260506150057 41 26 6.1 8.7 0.00 0.81 0.64 97 1008.6
20260506145601 41 28 5.2 8.7 0.01 0.81 0.64 97 1008.6
20260506145056 41 24 5.2 8.7 0.01 0.81 0.64 97 1008.6
20260506144555 41 46 5.2 8.7 0.01 0.81 0.64 97 1008.3
20260506144056 41 51 6.1 9.6 0.01 0.81 0.64 97 1008.4
20260506143554 42 28 6.1 9.6 0.01 0.81 0.64 97 1008.4
20260506143054 42 30 6.1 9.6 0.01 0.81 0.64 97 1008.3
20260506142553 42 48 6.1 9.6 0.01 0.81 0.64 97 1008.1
20260506142054 42 46 7.0 9.6 0.02 0.81 0.64 96 1008.1
20260506141551 42 51 6.1 7.8 0.02 0.81 0.64 97 1008.2
20260506141050 42 47 4.3 8.7 0.02 0.81 0.64 97 1008.2
20260506140550 42 56 5.2 8.7 0.02 0.81 0.64 96 1008.3
20260506140049 42 51 5.2 8.7 0.02 0.81 0.64 97 1008.3
20260506135548 42 60 3.5 8.7 0.01 0.80 0.63 96 1008.2
20260506135046 42 45 4.3 7.8 0.02 0.80 0.63 96 1008.3
20260506134546 43 48 4.3 7.8 0.02 0.80 0.63 96 1008.3
20260506134045 43 49 2.6 5.2 0.02 0.80 0.63 96 1008.2
20260506133545 43 63 2.6 4.3 0.02 0.80 0.63 97 1008.2
20260506133044 43 58 1.7 3.5 0.02 0.80 0.63 97 1008.1
20260506132543 43 58 1.7 3.5 0.02 0.80 0.63 97 1007.9
20260506132042 43 67 1.7 3.5 0.01 0.79 0.62 97 1007.9
20260506131549 43 77 0.9 3.5 0.01 0.79 0.62 97 1007.8
20260506131042 43 79 0.9 3.5 0.02 0.79 0.62 97 1007.9
20260506130541 43 81 0.9 3.5 0.02 0.79 0.62 96 1007.9
20260506130057 43 86 0.9 2.6 0.03 0.79 0.62 97 1007.9
20260506125539 43 71 0.0 2.6 0.03 0.79 0.62 97 1008.0
20260506125039 43 90 0.0 2.6 0.02 0.78 0.61 97 1007.9
20260506124541 43 90 0.9 3.5 0.02 0.78 0.61 97 1007.9
20260506124038 43 96 0.9 3.5 0.02 0.78 0.61 97 1007.9
20260506123538 43 92 1.7 3.5 0.02 0.78 0.61 97 1007.8
20260506123041 43 93 0.9 3.5 0.03 0.78 0.61 97 1007.9
20260506122542 43 69 1.7 3.5 0.03 0.78 0.61 97 1007.8
20260506122038 43 79 0.9 2.6 0.03 0.78 0.61 97 1008.0
20260506121539 43 79 0.9 3.5 0.03 0.78 0.61 97 1007.9
20260506121037 42 73 1.7 3.5 0.03 0.77 0.60 97 1007.9
20260506120536 42 98 0.9 3.5 0.03 0.77 0.60 97 1008.1
20260506120036 42 98 0.9 3.5 0.02 0.76 0.59 97 1008.1
20260506115536 42 97 0.9 3.5 0.03 0.76 0.59 97 1008.1
20260506115035 42 78 0.9 4.3 0.03 0.76 0.59 97 1007.9
20260506114538 42 87 0.9 3.5 0.04 0.76 0.59 97 1007.9
20260506114035 42 71 0.9 5.2 0.05 0.76 0.59 97 1007.7
20260506113535 42 87 1.7 5.2 0.05 0.75 0.57 97 1007.6
20260506113041 42 88 0.9 3.5 0.05 0.75 0.57 97 1007.7
20260506112535 43 87 0.9 3.5 0.06 0.75 0.57 97 1007.5
20260506112037 43 76 0.9 3.5 0.07 0.75 0.57 97 1007.5
20260506111533 43 104 0.9 3.5 0.07 0.75 0.57 97 1007.6
20260506111033 43 88 0.9 5.2 0.07 0.74 0.56 97 1007.6
20260506110532 43 61 2.6 5.2 0.08 0.74 0.56 97 1007.6
20260506110034 43 80 0.9 2.6 0.09 0.74 0.56 97 1007.5
20260506105531 43 80 0.9 2.6 0.09 0.73 0.56 97 1007.8
20260506105031 43 80 0.9 2.6 0.10 0.73 0.56 97 1007.7
20260506104531 43 86 0.9 2.6 0.09 0.72 0.55 97 1007.8
20260506104029 43 86 0.9 2.6 0.08 0.71 0.54 97 1007.9
20260506103529 43 86 0.9 2.6 0.08 0.70 0.53 97 1008.0
20260506103036 43 86 0.9 2.6 0.08 0.70 0.53 97 1008.2
20260506102529 43 86 0.9 3.5 0.07 0.69 0.52 97 1007.9
20260506102029 43 86 0.9 3.5 0.06 0.68 0.51 97 1007.9
20260506101542 43 86 0.9 2.6 0.07 0.68 0.51 97 1008.0
20260506101027 43 40 0.9 3.5 0.06 0.67 0.50 97 1008.2
20260506100526 43 40 0.9 3.5 0.05 0.66 0.49 97 1008.1
20260506100026 43 57 0.9 2.6 0.04 0.65 0.48 97 1007.9
20260506095526 43 107 0.9 2.6 0.03 0.64 0.47 97 1008.2
20260506095028 43 107 0.9 2.6 0.03 0.63 0.46 96 1008.1
20260506094526 43 78 0.9 2.6 0.03 0.63 0.46 97 1008.0
20260506094027 43 67 0.9 2.6 0.03 0.63 0.46 97 1007.9
20260506093526 43 63 0.9 3.5 0.03 0.62 0.45 97 1007.7
20260506093035 43 83 0.9 3.5 0.03 0.62 0.45 97 1007.7
20260506092525 43 73 1.7 3.5 0.04 0.62 0.45 97 1007.5
20260506092027 43 46 1.7 3.5 0.03 0.61 0.44 97 1007.3
20260506091526 43 83 1.7 3.5 0.04 0.61 0.44 97 1007.2
20260506091028 43 68 0.9 3.5 0.04 0.61 0.44 97 1007.4
20260506090522 43 103 0.9 2.6 0.05 0.61 0.44 97 1007.6
20260506090022 43 103 0.9 2.6 0.05 0.61 0.44 97 1007.9
20260506085526 43 103 0.0 2.6 0.06 0.61 0.44 97 1007.9
20260506085021 43 103 0.0 2.6 0.05 0.60 0.43 97 1008.1
20260506084521 43 96 0.9 2.6 0.06 0.60 0.43 97 1007.9
20260506084021 43 355 0.9 2.6 0.07 0.60 0.43 97 1007.8
20260506083521 43 91 0.9 2.6 0.07 0.59 0.42 97 1007.9
20260506083021 43 91 0.9 2.6 0.08 0.59 0.42 97 1008.1
20260506082523 43 91 0.0 2.6 0.08 0.57 0.41 97 1008.1
20260506082020 43 91 0.9 2.6 0.09 0.57 0.41 97 1008.2
20260506081530 43 91 0.9 1.7 0.08 0.56 0.40 97 1008.2
20260506081022 43 91 0.0 2.6 0.09 0.56 0.40 97 1008.0
20260506080520 43 91 0.0 2.6 0.09 0.56 0.39 97 1008.0
20260506080120 43 91 0.9 2.6 0.10 0.56 0.39 97 1008.0
20260506073518 43 90 1.7 4.3 0.09 0.51 0.34 96 1007.9
20260506073033 43 91 0.9 4.3 0.10 0.50 0.33 96 1008.0
20260506072516 44 90 1.7 4.3 0.11 0.50 0.33 96 1007.8
20260506072017 44 65 1.7 3.5 0.12 0.49 0.32 97 1007.7
20260506071515 44 101 0.9 3.5 0.13 0.48 0.31 97 1007.7
20260506071115 44 69 0.9 3.5 0.14 0.48 0.31 97 1007.8
20260506070514 44 69 0.9 3.5 0.14 0.47 0.30 97 1007.8
20260506062508 44 61 3.5 5.2 0.11 0.39 0.22 96 1009.0
20260506062007 44 74 0.9 7.8 0.10 0.37 0.20 96 1008.6
20260506061506 45 61 4.3 7.8 0.09 0.35 0.18 96 1008.5
20260506061005 45 58 2.6 5.2 0.09 0.34 0.17 96 1008.6